This demonstration page uses our WeatherBlox Daily Observations layout. Learn more.

Left ArrowRight Arrow

Hourly Observations for May 1, 2022

Temp ( °F °C ) Dew Point ( °F °C ) Humidity (%) Winds ( mph kmh ) Pressure ( in mb ) Visibility ( mi km ) Precip ( " mm )
12:53 am 00:53 Clear 46 7.8 31 -0.6 56 56 E 10 17 30.03 1017 10 16 0.00 0.00
1:53 am 01:53 Mostly Clear 45 7.2 31 -0.6 58 58 E 13 20 30.04 1017 10 16 0.00 0.00
2:53 am 02:53 Mostly Clear 43 6.1 30 -1.1 60 60 ENE 13 20 30.04 1017 10 16 0.00 0.00
3:53 am 03:53 Clear 42 5.6 31 -0.6 65 65 ENE 13 20 30.04 1017 10 16 0.00 0.00
4:53 am 04:53 Clear 41 5 32 0 70 70 E 12 19 30.04 1017 10 16 0.00 0.00
5:53 am 05:53 Clear 41 5 33 0.6 73 73 E 10 17 30.05 1018 10 16 0.00 0.00
6:53 am 06:53 Mostly Cloudy 42 5.6 33 0.6 71 71 ENE 14 22 30.06 1018 10 16 0.00 0.00
7:53 am 07:53 Mostly Cloudy 45 7.2 35 1.7 68 68 ENE 15 24 30.07 1018 10 16 0.00 0.00
8:53 am 08:53 Mostly Cloudy 49 9.4 36 2.2 61 61 E 16 26 30.07 1018 10 16 0.00 0.00
9:53 am 09:53 Mostly Sunny 57 13.9 34 1.1 42 42 E 18 30 30.06 1018 10 16 0.00 0.00
10:53 am 10:53 Sunny 58 14.4 35 1.7 42 42 ESE 21 33 30.07 1018 10 16 0.00 0.00
11:53 am 11:53 Partly Cloudy 56 13.3 35 1.7 46 46 SE 16 26 30.07 1018 10 16 0.00 0.00
12:53 pm 12:53 Cloudy 57 13.9 31 -0.6 37 37 SSE 20 31 30.06 1018 10 16 0.00 0.00
1:53 pm 13:53 Cloudy 59 15 28 -2.2 31 31 SE 20 31 30.05 1018 10 16 0.00 0.00
2:53 pm 14:53 Cloudy 58 14.4 28 -2.2 32 32 SE 15 24 30.04 1017 10 16 0.00 0.00
3:53 pm 15:53 Cloudy 58 14.4 29 -1.7 33 33 S 7 11 30.04 1017 10 16 0.00 0.00
4:53 pm 16:53 Cloudy 59 15 28 -2.2 31 31 VRB 5 7 30.03 1017 10 16 0.00 0.00
5:53 pm 17:53 Cloudy 60 15.6 26 -3.3 27 27 E 9 15 30.02 1017 10 16 0.00 0.00
6:53 pm 18:53 Cloudy 59 15 24 -4.4 26 26 SE 14 22 30.01 1016 10 16 0.00 0.00
7:53 pm 19:53 Cloudy 56 13.3 26 -3.3 32 32 SSE 8 13 30.02 1017 10 16 0.00 0.00
8:53 pm 20:53 Cloudy 52 11.1 26 -3.3 37 37 SSE 3 6 30.02 1017 10 16 0.00 0.00
9:53 pm 21:53 Mostly Clear 43 6.1 25 -3.9 49 49 S 7 11 30.03 1017 10 16 0.00 0.00
10:53 pm 22:53 Mostly Cloudy 42 5.6 25 -3.9 51 51 E 7 11 30.02 1017 10 16 0.00 0.00
11:53 pm 23:53 Clear 41 5 25 -3.9 53 53 SE 6 9 30.01 1016 10 16 0.00 0.00

Powered by AerisWeather